This is the latest recevied weather packets stored in our database for station/object VE3DVC. If no packets are shown the sender has not sent any weather packets the latest 10 day(s).
| Time | Temp. | Humidity | Pressure | Rain* | Wind** | Luminosity | Snow |
|---|---|---|---|---|---|---|---|
| 1788025351 | 25° C | 61% | 1022.6 hPa | 0 mm | - | - | - |
| 1788024631 | 25° C | 62% | 1022.5 hPa | 0 mm | - | - | - |
| 1788023911 | 24.44° C | 63% | 1022.7 hPa | 0 mm | - | - | - |
| 1788023190 | 23.89° C | 65% | 1022.7 hPa | 0 mm | - | - | - |
| 1788022471 | 23.89° C | 68% | 1022.7 hPa | 0 mm | - | - | - |
| 1788021752 | 23.33° C | 68% | 1023 hPa | 0 mm | - | - | - |
| 1788020587 | 22.78° C | 70% | 1023.2 hPa | 0 mm | - | - | - |
| 1788019867 | 22.22° C | 74% | 1023.3 hPa | 0 mm | - | - | - |
| 1788019146 | 22.22° C | 74% | 1023.5 hPa | 0 mm | - | - | - |
| 1788018427 | 21.67° C | 77% | 1023.4 hPa | 0 mm | - | - | - |
| 1788017706 | 21.67° C | 80% | 1023.4 hPa | 0 mm | - | - | - |
| 1788016987 | 21.11° C | 80% | 1023.4 hPa | 0 mm | - | - | - |
| 1788016266 | 20.56° C | 85% | 1023.6 hPa | 0 mm | - | - | - |
| 1788015547 | 20.56° C | 88% | 1023.7 hPa | 0 mm | - | - | - |
| 1788014827 | 20° C | 89% | 1023.7 hPa | 0 mm | - | - | - |
| 1788014107 | 19.44° C | 92% | 1023.7 hPa | 0 mm | - | - | - |
| 1788013386 | 18.89° C | 92% | 1023.7 hPa | 0 mm | - | - | - |
| 1788012666 | 18.33° C | 92% | 1023.7 hPa | 0 mm | - | - | - |
| 1788011947 | 18.33° C | 92% | 1023.6 hPa | 0 mm | - | - | - |
| 1788011227 | 17.78° C | 91% | 1023.6 hPa | 0 mm | - | - | - |
| 1788010506 | 17.22° C | 91% | 1023.3 hPa | 0 mm | - | - | - |
| 1788009073 | 15.56° C | 92% | 1023.4 hPa | 0 mm | - | - | - |
| 1788008353 | 15.56° C | 92% | 1023.4 hPa | 0 mm | - | - | - |
| 1788007634 | 15° C | 92% | 1023.3 hPa | 0 mm | - | - | - |
| 1788006913 | 14.44° C | 92% | 1023.3 hPa | 0 mm | - | - | - |
* Rain latest hour (hover to see other rain measurements)
** Current wind speed in m/s (hover to see current wind gust speed)